Location: Nebula Knoll Observatory
(43.6666°N, 71.0000°W)
Time: 12:40:13
(UTC-04:00)

Daily predictions for brighter satellites

Satellite Brightness Start Highest point End
(mag) Time Altitude Azimuth Time Altitude Azimuth Time Altitude Azimuth
Cosmos 2056 Rocket 3.9 20:39:02 10° S 20:43:52 42° ESE 20:48:41 10° NE
Cosmos 1371 Rocket 4.1 20:40:40 10° S 20:45:54 61° ESE 20:51:07 10° NNE
CENTAUR R/B 3.2 20:39:45 10° NW 20:47:36 88° SW 20:55:56 10° SSE
Cosmos 2278 Rocket 3.7 20:48:06 10° SE 20:51:36 17° E 20:55:06 10° ENE
USA 186 3.8 20:53:57 10° SSW 20:56:39 28° W 20:59:31 10° NNW
Cosmos 1356 Rocket 3.4 20:52:47 10° S 20:56:59 75° E 21:01:17 10° NNE
NOSS 2-2 (D) 3.6 20:56:15 10° SSW 21:00:16 55° ESE 21:04:56 10° NE
Cosmos 1844 Rocket 3.1 20:57:03 10° S 21:02:20 42° ESE 21:07:39 10° NE
Cosmos 2074 Rocket 4.0 20:57:43 10° S 21:04:00 83° E 21:10:19 10° N
SL-27 R/B 2.7 21:01:51 10° NNW 21:05:29 60° ENE 21:08:58 11° SSE
Meteor 2-3 Rocket 4.3 21:00:05 10° SSW 21:05:40 64° WNW 21:11:14 10° N
Cosmos 1825 3.6 21:03:03 10° SE 21:05:57 21° E 21:08:54 10° NE
COSMOS 2487 4.4 21:05:40 10° NNE 21:08:17 18° ENE 21:10:43 11° ESE
Cosmos 2082 Rocket 4.2 21:05:01 10° N 21:08:36 17° NE 21:12:09 10° E
H-2A R/B 2.0 21:04:58 10° SSE 21:09:17 79° ENE 21:13:33 10° N
COS B Rocket 3.9 21:06:10 10° NNE 21:10:11 40° E 21:13:47 10° SSE
Cosmos 1610 Rocket 4.5 21:06:37 10° S 21:12:40 67° E 21:18:51 10° NNE
Meteor 1-27 Rocket 4.0 21:07:44 10° N 21:13:13 53° ENE 21:18:25 11° SSE
NOSS 2-2 (C) 3.5 21:10:50 10° SSW 21:14:55 78° SE 21:19:45 10° NE
Nadezhda 3 Rocket 4.3 21:11:11 10° N 21:17:25 56° ENE 21:23:31 11° SSE
Cosmos 2263 Rocket 4.0 21:12:33 10° WSW 21:17:43 36° NW 21:22:55 10° N
Cosmos 1340 Rocket 4.3 21:14:38 10° SW 21:18:24 40° WNW 21:22:12 10° N
MetOp-A 4.3 21:14:04 10° SSE 21:19:20 61° ENE 21:24:36 10° N
CZ-4 SHROUD 3.6 21:17:38 15° SE 21:19:57 45° ENE 21:22:56 10° N
YAOGAN 6 3.1 21:17:30 14° SE 21:20:10 41° ENE 21:23:30 10° N
Cosmos 1408 3.5 21:18:10 14° SSE 21:20:48 30° E 21:24:02 10° NNE
Envisat 3.1 21:17:53 10° S 21:22:57 79° WSW 21:28:04 10° NNW
Cosmos 1624 Rocket 4.2 21:17:53 10° SSW 21:23:09 80° WNW 21:28:30 10° NNE
Cosmos 1782 2.9 21:19:57 10° N 21:24:00 81° W 21:28:01 10° S
BREEZE-M DEB (TANK) 3.8 21:23:15 10° W 21:24:58 20° SSW 21:26:55 13° SSE
Cosmos 1939 Rocket 3.4 21:21:38 10° S 21:25:25 55° W 21:29:17 10° NNW
Atlas Centaur 2 3.2 21:25:24 10° SSW 21:26:17 11° S 21:26:36 11° S
Okean 2 Rocket 4.1 21:25:30 16° SE 21:28:15 29° E 21:32:02 10° NNE
H-2A R/B 3.5 21:25:02 13° ESE 21:28:39 25° ENE 21:32:55 10° N
Cosmos 1238 Rocket 2.9 21:26:31 10° N 21:29:29 40° E 21:31:27 20° SE
Sich 1 Rocket 3.6 21:28:34 10° S 21:33:10 85° E 21:37:46 10° N
NOSS 2-2 (E) 4.1 21:29:46 10° SW 21:33:57 66° NW 21:38:58 10° NNE
SPOT 5 3.1 21:28:52 10° SSE 21:34:07 86° WSW 21:39:31 10° NNW
Cosmos 1242 Rocket 3.8 21:31:45 10° NNE 21:34:53 26° ENE 21:36:29 19° ESE
ERBS 3.5 21:33:01 10° WNW 21:36:12 34° SW 21:38:24 17° S
Cosmos 2341 Rocket 4.1 21:30:18 10° S 21:36:27 58° E 21:42:36 10° NNE
PSLV R/B 3.0 21:34:51 19° SSE 21:36:50 90° SSW 21:39:48 10° NNW
Cosmos 1674 Rocket 4.1 21:32:37 10° NNW 21:37:01 59° W 21:41:23 10° S
Cosmos 1606 2.7 21:34:18 10° N 21:38:16 87° E 21:41:21 16° S
Cosmos 407 Rocket 3.6 21:35:21 10° NNW 21:40:38 77° WSW 21:45:02 15° SSE
SPOT 1/Viking Rocket 3.6 21:39:31 17° SSE 21:43:29 67° ENE 21:48:41 10° N
Terra 3.1 21:42:24 17° ESE 21:44:54 26° ENE 21:48:48 10° N
Timation 2 Rocket 4.4 21:40:21 10° NNW 21:46:08 46° ENE 21:50:03 20° ESE
Cosmos 1452 Rocket 3.5 21:41:48 10° S 21:47:01 67° ESE 21:52:16 10° NNE
Cosmos 1782 Rocket 3.6 21:47:17 17° S 21:50:39 61° E 21:55:05 10° NNE
Cosmos 1140 Rocket 3.7 21:49:57 10° NNW 21:55:02 56° ENE 21:57:55 25° SE
Cosmos 962 Rocket 4.4 21:55:03 10° S 22:01:12 88° E 22:07:28 10° N
SL-8 Rocket 4.2 21:57:01 19° SSE 22:01:25 54° E 22:07:29 10° NNE
Okean 3 3.5 21:59:27 10° N 22:03:45 80° W 22:06:18 24° S
USA 234 3.5 21:58:22 10° ENE 22:04:36 45° SE 22:10:47 10° SSW
Cosmos 1975 Rocket 2.9 22:01:03 10° N 22:05:24 89° E 22:07:44 27° S
Cosmos 2154 Rocket 4.3 22:01:35 10° SSW 22:07:46 66° W 22:13:57 10° N
Intercosmos 25 3.0 22:07:21 30° S 22:09:00 68° E 22:12:10 10° NNE
CARTOSAT-1 4.2 22:07:37 29° ESE 22:09:12 41° ENE 22:13:16 10° N
CZ-4B R/B 3.4 22:04:42 10° NNE 22:09:44 89° ESE 22:13:59 14° SSW
BREEZE-M DEB (TANK) 4.1 22:08:56 10° W 22:11:58 52° N 22:20:23 10° ENE
SL-8 R/B 4.0 22:09:46 10° WSW 22:14:34 68° NNW 22:19:22 10° ENE
Meteor 1-14 Rocket 4.3 22:12:57 25° SSE 22:16:08 57° E 22:21:38 10° NNE
Cosmos 1536 Rocket 4.3 22:13:52 10° N 22:18:05 39° ENE 22:19:18 32° ESE
Cosmos 1850 Rocket 4.1 22:14:03 10° NNW 22:19:22 69° ENE 22:21:46 33° SE
USA 245 4.0 22:19:18 26° SSW 22:20:32 39° W 22:24:01 10° NNW
SL-08 RB Rocket 3.8 22:18:58 28° S 22:21:20 73° WSW 22:25:59 10° NNW
ARGOS 3.4 22:19:51 22° S 22:23:15 64° WSW 22:28:36 10° NNW
ATLAS 5 CENTAUR R/B 4.1 22:19:31 10° WNW 22:24:21 25° WSW 22:28:52 12° SSW
Cosmos 1184 Rocket 3.8 22:24:37 21° SW 22:26:29 45° WNW 22:29:44 10° N
CZ-4 R/B 3.8 22:22:31 10° NNE 22:27:15 82° WNW 22:30:17 22° SSW
CZ-3C R/B 4.4 22:25:48 10° SW 22:28:56 11° SSW 22:30:50 10° SSW
Cosmos 2151 Rocket 3.6 22:32:07 43° SSE 22:33:23 63° E 22:37:53 10° NNE
Cosmos 864 Rocket 4.5 22:30:33 31° SSE 22:33:34 65° E 22:39:39 10° NNE
Cosmos 2278 Rocket 2.4 22:29:20 10° SSW 22:35:00 72° WNW 22:40:42 10° NNE
Cosmos 1741 Rocket 3.9 22:32:37 10° NNW 22:37:53 86° WSW 22:39:49 40° SSE
Cosmos 1833 Rocket 3.0 22:33:18 10° NNW 22:38:49 53° ENE 22:40:56 35° ESE
Cosmos 2366 rocket 3.9 22:36:39 29° S 22:40:03 77° E 22:46:23 10° N
Spot 2 4.4 22:36:58 10° NNE 22:41:11 43° E 22:41:20 43° ESE
Cosmos 1825 4.2 22:38:13 10° SW 22:41:27 26° WNW 22:44:42 10° NNW
Cosmos 2084 3.6 22:38:50 10° SW 22:42:39 61° NW 22:46:28 10° NNE
COSMOS 2487 3.9 22:40:46 10° NW 22:43:58 30° WSW 22:44:48 27° SW
Cosmos 1844 Rocket 4.5 22:41:21 10° WSW 22:46:20 32° NW 22:51:21 10° N
USA 229 DEB 3.9 22:41:44 10° NW 22:48:50 70° NE 22:52:17 33° SE
USA 229 3.9 22:41:50 10° NNW 22:48:56 70° NE 22:52:24 33° SE
Gbstr 26 Del rocket 4.5 22:45:43 10° NW 22:50:22 36° NNE 22:53:16 16° ENE
APEX 3.4 22:50:10 45° SSW 22:51:23 85° WNW 22:56:24 10° NNE
CZ-4C R/B 4.0 22:51:49 39° SW 22:52:39 45° W 22:56:31 10° NNW
Cosmos 1812 2.9 22:48:51 10° N 22:52:40 56° E 22:52:41 56° E
Cosmos 2082 Rocket 2.1 22:47:50 10° NNW 22:53:35 85° ENE 22:55:25 45° SSE
Cosmos 1110 Rocket 4.2 22:59:10 46° ESE 22:59:37 48° ESE 23:04:38 10° NNE
Okean 1-7 Rocket 4.0 22:57:19 10° N 23:01:41 46° ENE 23:02:00 45° E
Cosmos 2218 Rocket 4.4 22:59:14 22° SSW 23:03:26 64° W 23:09:48 10° N
Okean 1 Rocket 3.4 23:05:05 49° E 23:05:05 49° E 23:09:22 10° NNE
Cosmos 2297 3.8 23:02:58 25° SSW 23:06:27 78° WNW 23:12:14 10° NNE
H-2A R/B 2.8 23:05:40 33° SSW 23:07:46 49° W 23:12:57 10° NNW
Cosmos 1300 Rocket 3.6 23:08:01 62° E 23:08:05 62° E 23:12:29 10° NNE
Cosmos 1025 Rocket 4.4 23:04:40 10° NNE 23:08:27 27° ENE 23:08:31 27° ENE
Cosmos 1400 Rocket 4.5 23:15:25 24° ENE 23:15:25 24° ENE 23:17:53 10° NE
Cosmos 1727 Rocket 4.3 23:13:17 10° NNW 23:19:20 58° W 23:21:45 36° SSW
Cosmos 1486 Rocket 4.4 23:14:57 10° NNW 23:20:12 54° ENE 23:21:11 47° ESE
AVUM R/B 4.2 23:18:43 10° NNW 23:21:31 52° N 23:21:31 52° N
Spot 4 4.4 23:21:25 43° SW 23:22:25 50° W 23:27:09 10° NNW
Terra 2.8 23:21:17 32° SW 23:22:27 37° W 23:26:52 10° NNW
ASTEX 1 3.5 23:19:49 10° N 23:24:46 73° W 23:25:46 55° SW
Lacrosse 5 3.9 23:35:24 16° E 23:35:24 16° E 23:36:43 10° ENE
Okean 1 3.9 23:30:51 10° NNW 23:34:40 52° W 23:34:40 52° W
NOSS 3-1 (C) 4.3 23:31:48 10° NNW 23:39:11 62° NE 23:43:05 33° ESE
Cosmos 2369 Rocket 3.2 23:46:18 30° E 23:46:18 30° E 23:50:33 10° NE
BREEZE-M DEB (TANK) 3.7 23:43:21 10° NW 23:45:59 40° NNE 23:52:41 10° E
Meteor 2-14 Rocket 4.5 23:46:49 55° SE 23:47:42 61° E 23:53:45 10° NNE
USA 234 3.7 23:41:18 10° NE 23:47:44 60° NNW 23:54:06 10° WSW
Meteor 2-15 4.5 23:44:07 10° N 23:50:13 66° E 23:51:18 56° SE
CZ-4C R/B 4.1 23:55:12 45° NNE 23:55:12 45° NNE 23:58:02 10° N
